F4MLU-13 Weather Reports


time (UTC)temp
F
wind
direction
speed
knots
gust
knots
rain 1hr
in
rain 24hr
in
rain mn
in
humidity
%
barometer
mb
20260507133020 71 120 0.0 0.0 0.00 0.00 0.00 52
20260507132020 71 161 0.0 0.0 0.00 0.00 0.00 52
20260507131020 70 156 0.0 0.0 0.00 0.00 0.00 51
20260507130020 70 135 0.0 0.0 0.00 0.00 0.00 53
20260507125040 70 149 0.0 0.0 0.00 0.00 0.00 54
20260507124020 70 115 0.0 0.0 0.00 0.00 0.00 53
20260507123020 69 153 0.0 0.0 0.00 0.00 0.00 54
20260507122020 70 137 0.0 0.0 0.00 0.00 0.00 55
20260507121050 70 149 0.0 0.0 0.00 0.00 0.00 55
20260507120020 70 146 0.0 0.0 0.00 0.00 0.00 53
20260507115020 70 153 0.0 0.0 0.00 0.00 0.00 55
20260507114020 69 135 0.0 0.0 0.00 0.00 0.00 57
20260507113020 69 126 0.0 0.0 0.00 0.00 0.00 55
20260507112021 69 151 0.0 0.0 0.00 0.00 0.00 56
20260507111020 69 154 0.0 0.0 0.00 0.00 0.00 57
20260507110020 69 124 0.0 0.0 0.00 0.00 0.00 57
20260507105020 67 92 0.0 0.0 0.00 0.00 0.00 56
20260507104021 67 110 0.0 0.0 0.00 0.00 0.00 56
20260507103020 66 118 0.0 0.0 0.00 0.00 0.00 60
20260507102021 67 149 0.0 0.0 0.00 0.00 0.00 60
20260507101021 66 146 0.0 0.0 0.00 0.00 0.00 62
20260507100021 65 123 0.0 0.0 0.00 0.00 0.00 64
20260507095020 65 136 0.0 0.0 0.00 0.00 0.00 64
20260507094020 65 150 0.0 0.0 0.00 0.00 0.00 65
20260507093021 64 137 0.0 0.0 0.00 0.00 0.00 67
20260507092051 65 139 0.0 0.0 0.00 0.00 0.00 65
20260507091020 64 130 0.0 0.0 0.00 0.00 0.00 67
20260507090021 64 145 0.0 0.0 0.00 0.00 0.00 68
20260507085021 63 142 0.0 0.0 0.00 0.00 0.00 68
20260507084021 61 128 0.0 0.0 0.00 0.00 0.00 73
20260507083020 61 128 0.0 0.0 0.00 0.00 0.00 73
20260507082020 60 141 0.0 0.0 0.00 0.00 0.00 75
20260507081021 59 131 0.0 0.0 0.00 0.00 0.00 77
20260507080041 59 141 0.0 0.0 0.00 0.00 0.00 76
20260507075021 57 142 0.0 0.0 0.00 0.00 0.00 80
20260507074021 55 140 0.0 0.0 0.00 0.00 0.00 82
20260507073101 56 141 0.0 0.0 0.00 0.00 0.00 80
20260507072021 52 139 0.0 0.0 0.00 0.00 0.00 89
20260507071021 51 147 0.0 0.0 0.00 0.00 0.00 94
20260507070021 47 148 0.0 0.0 0.00 0.00 0.00 97
20260507065021 46 148 0.0 0.0 0.00 0.00 0.00 98
20260507064021 45 149 0.0 0.0 0.00 0.00 0.00 98
20260507063021 44 150 0.0 0.0 0.00 0.00 0.00 99
20260507062021 43 150 0.0 0.0 0.00 0.00 0.00 99
20260507061021 42 150 0.0 0.0 0.00 0.00 0.00 99
20260507060021 41 150 0.0 0.0 0.00 0.00 0.00 99
20260507055041 41 150 0.0 0.0 0.00 0.00 0.00 99
20260507054102 40 150 0.0 0.0 0.00 0.00 0.00 99
20260507053041 40 150 0.0 0.0 0.00 0.00 0.00 99
20260507052321 40 150 0.0 0.0 0.00 0.00 0.00 99
20260507051021 40 150 0.0 0.0 0.00 0.00 0.00 99
20260507050021 40 150 0.0 0.0 0.00 0.00 0.00 99
20260507045021 40 150 0.0 0.0 0.00 0.00 0.00 99
20260507044021 40 150 0.0 0.0 0.00 0.00 0.00 99
20260507043021 40 149 0.0 0.0 0.00 0.00 0.00 99
20260507042021 40 149 0.0 0.0 0.00 0.00 0.00 99
20260507041021 40 149 0.0 0.0 0.00 0.00 0.00 99
20260507040021 40 149 0.0 0.0 0.00 0.00 0.00 99
20260507035021 41 149 0.0 0.0 0.00 0.00 0.00 99
20260507034021 40 149 0.0 0.0 0.00 0.00 0.00 99
20260507033021 41 149 0.0 0.0 0.00 0.00 0.00 99
20260507032021 41 149 0.0 0.0 0.00 0.00 0.00 99
20260507031021 41 149 0.0 0.0 0.00 0.00 0.00 99
20260507030021 41 149 0.0 0.0 0.00 0.00 0.00 99
20260507025022 42 149 0.0 0.0 0.00 0.00 0.00 99
20260507024041 42 149 0.0 0.0 0.00 0.00 0.00 99
20260507023041 42 149 0.0 0.0 0.00 0.00 0.00 99
20260507022021 42 149 0.0 0.0 0.00 0.00 0.00 99
20260507021021 42 149 0.0 0.0 0.00 0.00 0.00 99
20260507020021 42 149 0.0 0.0 0.00 0.00 0.00 99
20260507015021 42 149 0.0 0.0 0.00 0.00 0.00 99
20260507014021 43 149 0.0 0.0 0.00 0.00 0.00 99
20260507013111 43 149 0.0 0.0 0.00 0.00 0.00 99
20260507012041 43 149 0.0 0.0 0.00 0.00 0.00 99
20260507011022 43 149 0.0 0.0 0.00 0.00 0.00 99
20260507010022 43 149 0.0 0.0 0.00 0.00 0.00 99
20260507005022 43 149 0.0 0.0 0.00 0.00 0.00 98
20260507004022 44 149 0.0 0.0 0.00 0.00 0.00 98
20260507003041 44 149 0.0 0.0 0.00 0.00 0.00 98
20260507002021 44 149 0.0 0.0 0.00 0.00 0.00 98
20260507001022 45 143 0.0 0.0 0.00 0.00 0.00 98
20260507000022 45 143 0.0 0.0 0.00 0.00 0.00 98
20260506235021 45 166 0.0 0.0 0.00 0.00 0.00 98
20260506234022 46 167 0.0 0.0 0.00 0.00 0.00 98
20260506233042 46 165 0.0 0.0 0.00 0.00 0.00 98
20260506232022 46 157 0.0 0.0 0.00 0.00 0.00 98
20260506231021 46 149 0.0 0.0 0.00 0.00 0.00 98
20260506230022 46 148 0.0 0.0 0.00 0.00 0.00 98
20260506225022 46 148 0.0 0.0 0.00 0.00 0.00 98
20260506224041 47 148 0.0 0.0 0.00 0.00 0.00 98
20260506223022 47 148 0.0 0.0 0.00 0.00 0.00 97
20260506222022 47 148 0.0 0.0 0.00 0.00 0.00 97
20260506221022 48 148 0.0 0.0 0.00 0.00 0.00 97
20260506220022 48 148 0.0 0.0 0.00 0.00 0.00 97
20260506215023 48 148 0.0 0.0 0.00 0.00 0.00 97
20260506214022 48 148 0.0 0.0 0.00 0.00 0.00 96
20260506213022 48 148 0.0 0.0 0.00 0.00 0.00 96
20260506212022 49 148 0.0 0.0 0.00 0.00 0.00 95
20260506211022 49 148 0.0 0.0 0.00 0.00 0.00 94
20260506210022 49 148 0.0 0.0 0.00 0.00 0.00 95
20260506205122 49 162 0.0 0.0 0.00 0.00 0.00 95
20260506204022 49 162 0.0 0.0 0.00 0.00 0.00 95
20260506203022 49 162 0.0 0.0 0.00 0.00 0.00 95
20260506202042 49 149 0.0 0.0 0.00 0.00 0.00 95
20260506201022 50 147 0.0 0.0 0.00 0.00 0.00 95
20260506200022 50 147 0.0 0.0 0.00 0.00 0.00 93
20260506195022 50 147 0.0 0.0 0.00 0.00 0.00 93
20260506194052 51 147 0.0 0.0 0.00 0.00 0.00 92
20260506193022 52 147 0.0 0.0 0.00 0.00 0.00 90
20260506192052 53 147 0.0 0.0 0.00 0.00 0.00 89
20260506191022 53 147 0.0 0.0 0.00 0.00 0.00 87
20260506190022 54 147 0.0 0.0 0.00 0.00 0.00 83
20260506185022 55 147 0.0 0.0 0.00 0.00 0.00 79
20260506184022 57 147 0.0 0.0 0.00 0.00 0.00 76
20260506183022 58 149 0.0 0.0 0.00 0.00 0.00 72
20260506182022 58 150 0.0 0.0 0.00 0.00 0.00 69
20260506181043 62 153 0.0 0.0 0.00 0.00 0.00 63
20260506180022 62 148 0.0 0.0 0.00 0.00 0.00 63
20260506175022 61 180 0.0 0.0 0.00 0.00 0.00 66
20260506174023 59 158 0.0 0.0 0.00 0.00 0.00 67
20260506173043 61 162 0.0 0.0 0.00 0.00 0.00 63
20260506172233 61 147 0.0 0.0 0.00 0.00 0.00 65
20260506171042 60 237 0.0 0.0 0.00 0.00 0.00 66
20260506170022 61 239 0.0 0.0 0.00 0.00 0.00 63
20260506165052 62 140 0.0 0.0 0.00 0.00 0.00 59
20260506164023 66 238 0.0 0.0 0.00 0.00 0.00 55
20260506163023 64 149 0.0 0.0 0.00 0.00 0.00 59
20260506162043 62 270 0.0 0.0 0.00 0.00 0.00 62
20260506161023 62 58 0.0 0.0 0.00 0.00 0.00 62
20260506160022 63 147 0.0 0.0 0.00 0.00 0.00 62
20260506155022 63 144 0.0 0.0 0.00 0.00 0.00 60
20260506154022 64 270 0.0 0.0 0.00 0.00 0.00 57
20260506153053 66 270 0.0 0.0 0.00 0.00 0.00 55
20260506152022 63 272 0.0 0.0 0.00 0.00 0.00 60
20260506151023 64 151 0.0 0.0 0.00 0.00 0.00 60
20260506150023 67 270 0.0 0.0 0.00 0.00 0.00 55
20260506145023 67 273 0.0 0.9 0.00 0.00 0.00 54
20260506144022 63 272 0.0 0.0 0.00 0.00 0.00 58
20260506143022 63 233 0.0 0.0 0.00 0.00 0.00 60
20260506142023 65 248 0.0 0.0 0.00 0.08 0.00 60
20260506141023 64 145 0.0 0.0 0.00 0.16 0.00 63
20260506140052 64 160 0.0 0.0 0.00 0.24 0.00 61